Hoquiam, WA

8:18 PM PDT on March 22, 2017 (GMT -0700)
Bowerman

Weather History for KHQM - December, 2013

Change the Weather History Date:

Friday, December 27, 2013

  Actual Average Record
Temperature  
Mean Temperature 36 °F 41 °F  
Max Temperature 41 °F 46 °F 55 °F (1980)
Min Temperature 30 °F 37 °F 25 °F (1978)
Degree Days  
Heating Degree Days 29 24  
Month to date heating degree days 736 635  
Cooling Degree Days 0 0  
Month to date cooling degree days 0 0  
Year to date cooling degree days 20 23  
Moisture  
Dew Point -    
Average Humidity    
Maximum Humidity    
Minimum Humidity    
Precipitation  
Precipitation 0.15 in 0.32 in 2.40 in (1998)
Month to date precipitation 4.02 8.70  
Year to date precipitation 53.75 66.29  
Sea Level Pressure  
Sea Level Pressure 30.24 in    
Wind  
Wind Speed 7 mph (NW)    
Max Wind Speed 14 mph    
Max Gust Speed -    
Visibility 5 miles    
Events Rain    
T = Trace of Precipitation, MM = Missing Value Source: NWS Daily Summary

Daily Weather History Graph

Daily Weather History Graph

Search for Another Location

Airport or City:

Trip Planner

Search our weather history database for the weather conditions in past years. The results will help you decide how hot, cold, wet, or windy it might be!

Date:

Astronomy

Dec. 27, 2013 Rise Set
Actual Time 8:00 AM PST 4:33 PM PST
Civil Twilight 7:25 AM PST 5:08 PM PST
Nautical Twilight 6:46 AM PST 5:47 PM PST
Astronomical Twilight 6:09 AM PST 6:24 PM PST
Moon 2:26 AM PST (12/27) 12:58 PM PST (12/27)
Length of Visible Light 9h 43m
Length of Day
8h 32m
Waning Crescent, 27% of the Moon is Illuminated
Dec 27
Waning Crescent
Jan 1
New
Jan 7
First Quarter
Jan 15
Full
Jan 23
Last Quarter

Hourly Weather History & Observations

Time (PST) Temp. Dew Point Humidity Pressure Visibility Wind Dir Wind Speed Gust Speed Precip Events Conditions
12:05 AM - - N/A% 30.20 in 1.2 mi ENE 8.1 mph - N/A   Scattered Clouds
12:13 AM - - N/A% 30.20 in 1.2 mi ENE 6.9 mph - N/A   Mostly Cloudy
12:30 AM - - N/A% 30.19 in 2.5 mi ENE 6.9 mph - N/A   Scattered Clouds
12:50 AM - - N/A% 30.19 in 4.0 mi ENE 8.1 mph - N/A   Haze
12:53 AM - - N/A% 30.21 in 4.0 mi ENE 8.1 mph - N/A   Haze
1:12 AM - - N/A% 30.18 in 2.5 mi ENE 8.1 mph - N/A   Clear
1:22 AM - - N/A% 30.18 in 4.0 mi ENE 8.1 mph - N/A   Haze
1:53 AM - - N/A% 30.19 in 4.0 mi ENE 10.4 mph - N/A   Haze
2:53 AM - - N/A% 30.19 in 6.0 mi ENE 8.1 mph - N/A   Haze
3:53 AM - - N/A% 30.18 in 5.0 mi ENE 4.6 mph - N/A   Haze
4:53 AM - - N/A% 30.18 in 6.0 mi NE 3.5 mph - N/A   Haze
5:53 AM - - N/A% 30.16 in 6.0 mi ENE 10.4 mph - N/A   Haze
6:53 AM - - N/A% 30.18 in 6.0 mi ENE 3.5 mph - N/A   Haze
7:53 AM - - N/A% 30.18 in 5.0 mi ENE 9.2 mph - N/A   Haze
8:53 AM - - N/A% 30.20 in 4.0 mi ENE 3.5 mph - N/A   Haze
9:06 AM - - N/A% 30.18 in 2.0 mi NE 3.5 mph - N/A   Overcast
9:29 AM - - N/A% 30.19 in 1.8 mi Calm Calm - 0.00 in Rain Light Rain
9:41 AM - - N/A% 30.19 in 2.0 mi East 3.5 mph - 0.00 in   Overcast
9:53 AM - - N/A% 30.21 in 2.0 mi East 3.5 mph - 0.00 in   Overcast
10:17 AM - - N/A% 30.20 in 1.2 mi East 4.6 mph - N/A   Overcast
10:53 AM - - N/A% 30.23 in 1.0 mi Calm Calm - 0.03 in Rain Light Rain
11:22 AM - - N/A% 30.20 in 1.2 mi Calm Calm - 0.03 in Rain Light Rain
11:53 AM - - N/A% 30.22 in 2.0 mi Calm Calm - 0.08 in Rain Light Rain
12:01 PM - - N/A% 30.20 in 1.8 mi Calm Calm - 0.00 in Rain Light Rain
12:34 PM - - N/A% 30.19 in 2.5 mi WSW 4.6 mph - 0.03 in Rain Light Rain
12:50 PM - - N/A% 30.19 in 1.2 mi SW 16.1 mph - 0.04 in   Overcast
12:53 PM - - N/A% 30.21 in 1.2 mi SW 13.8 mph - 0.04 in   Overcast
1:00 PM - - N/A% 30.19 in 3.0 mi WSW 10.4 mph - N/A   Overcast
1:14 PM - - N/A% 30.19 in 6.0 mi West 11.5 mph - N/A   Haze
1:43 PM - - N/A% 30.20 in 7.0 mi WNW 10.4 mph - N/A   Overcast
1:53 PM - - N/A% 30.23 in 7.0 mi WNW 11.5 mph - N/A   Overcast
2:20 PM - - N/A% 30.22 in 7.0 mi WNW 8.1 mph - N/A   Overcast
2:53 PM - - N/A% 30.25 in 7.0 mi West 6.9 mph - N/A   Overcast
3:53 PM - - N/A% 30.28 in 5.0 mi SW 8.1 mph - N/A   Haze
4:19 PM - - N/A% 30.26 in 5.0 mi WSW 9.2 mph - N/A   Haze
4:53 PM - - N/A% 30.28 in 6.0 mi West 13.8 mph - N/A   Haze
5:53 PM - - N/A% 30.30 in 6.0 mi West 11.5 mph - N/A   Haze
6:53 PM - - N/A% 30.32 in 7.0 mi West 9.2 mph - N/A   Partly Cloudy
7:21 PM - - N/A% 30.31 in 7.0 mi West 9.2 mph - N/A   Mostly Cloudy
7:53 PM - - N/A% 30.34 in 6.0 mi WSW 5.8 mph - N/A   Haze
8:39 PM - - N/A% 30.33 in 8.0 mi West 11.5 mph - N/A   Scattered Clouds
8:53 PM - - N/A% 30.35 in 8.0 mi West 10.4 mph - N/A   Partly Cloudy
9:29 PM - - N/A% 30.35 in 8.0 mi WSW 6.9 mph - N/A   Mostly Cloudy
9:53 PM - - N/A% 30.38 in 8.0 mi West 9.2 mph - N/A   Overcast
10:53 PM - - N/A% 30.39 in 8.0 mi West 10.4 mph - N/A   Overcast
11:18 PM - - N/A% 30.38 in 8.0 mi West 8.1 mph - N/A   Mostly Cloudy
11:31 PM - - N/A% 30.37 in 8.0 mi West 10.4 mph - N/A   Scattered Clouds
11:53 PM - - N/A% 30.40 in 8.0 mi West 10.4 mph - N/A   Clear